Flag for Canada Weather past 2 weeks in Ottawa, Ontario, Canada

Now
19 °F

Ice fog.


Feels Like: 19 °F
Forecast: 12 / 30 °F
Wind: No wind

Location: Ottawa Int'L. Ont.

Current Time: Mar 3, 2015 at 11:52:11 PM

Latest Report: Mar 3, 2015 at 11:00 PM


Visibility: 5 mi

Pressure: 29.54 "Hg

Humidity: 93%

Dew point: 18 °F

Location of OttawaLocation

Historic Weather in Ottawa — Graph

°F

Ottawa temperature yesterday

Maximum temperature yesterday: 27 °F (at 1:00 PM)
Minimum temperature yesterday: 9 °F (at 11:00 PM)
Average temperature yesterday: 20 °F

Past Weeks' High & Low Weather Summary

 TemperatureHumidityPressure
High27 °F (Mar 2, 1:00 PM)93% (Feb 22, 8:00 PM)30.74 "Hg (Feb 22, 8:00 PM)
Low-13 °F (Feb 17, 5:00 AM)32% (Feb 27, 3:00 PM)29.54 "Hg (Mar 3, 10:00 PM)
Average6 °F67%30.13 "Hg
* Reported Feb 16 10:00 PM — Mar 3 10:00 PM, Ottawa, Weather by CustomWeather, © 2015

Note: Actual official high and low records may vary slightly from our data, if they occured in-between our weather recording intervals... More about our weather records

Advertising

Ottawa weather history for previous 24 hours

 ConditionsComfort  
Time TempWeatherWind HumidityBarometerVisibility
10:00 PM
Tue, Mar 3
19 °FLight mixture of precip. Low clouds.10 mph93%29.54 "Hg4 mi
9:00 PM18 °FLight snow. Ice fog.9 mph93%29.59 "Hg1 mi
8:00 PM18 °FLight snow. Ice fog.13 mph86%29.64 "Hg1 mi
7:00 PM18 °FLight snow. Ice fog.12 mph86%29.72 "Hg1 mi
6:00 PM18 °FLight snow. Ice fog.12 mph93%29.80 "Hg1 mi
5:00 PM18 °FLight snow. Low clouds.10 mph86%29.88 "Hg1 mi
4:00 PM21 °FMostly cloudy.7 mph54%29.96 "Hg15 mi
3:00 PM21 °FMostly cloudy.9 mph54%30.01 "Hg15 mi
2:00 PM21 °FMostly cloudy.8 mph54%30.07 "Hg15 mi
1:00 PM23 °FMostly cloudy.9 mph50%30.15 "Hg15 mi
12:00 PM21 °FBroken clouds.10 mph54%30.22 "Hg15 mi
11:00 AM19 °FBroken clouds.10 mph53%30.27 "Hg15 mi
10:00 AM16 °FPartly sunny.9 mph57%30.29 "Hg15 mi
9:00 AM9 °FPassing clouds.2 mph66%30.33 "Hg15 mi
8:00 AM3 °FScattered clouds.8 mph78%30.34 "Hg15 mi
7:00 AM1 °FScattered clouds.6 mph85%30.35 "Hg15 mi
6:00 AM0 °FClear.3 mph78%30.36 "Hg15 mi
5:00 AM3 °FClear.No wind85%30.36 "Hg15 mi
4:00 AM3 °FClear.3 mph85%30.37 "Hg15 mi
3:00 AM3 °FClear.2 mph78%30.36 "Hg15 mi
2:00 AM7 °FClear.6 mph78%30.37 "Hg15 mi
1:00 AM1 °FClear.3 mph78%30.37 "Hg15 mi
12:00 AM9 °FClear.3 mph66%30.36 "Hg15 mi
11:00 PM
Mon, Mar 2
9 °FClear.5 mph66%30.36 "Hg15 mi
Weather by CustomWeather, © 2015

See weather overviewHow to use our weather pages